STARLINK-3758, 52297

Orbit data source: Space-Track

STARLINK-3758, 52297 is a payload satellite owned by SpaceX/Seattle (US) in LEO that was launched on Thu, 21 Apr 2022 UTC via an FALCON 9 launch vehicle from the Air Force Eastern Test Range (AFETR). Payload-class satellites include a variety of spacecraft equipped with specific instruments for various scientific and technological missions. These include communications satellites like Starlink; space stations such as the ISS; scientific satellites like the Hubble; Earth observation satellites from companies like Planet Labs, Umbra, and HawkEye 360; GPS; miniature CubeSats for education and research; and military/defense satellites.

Loading next visibility...
Identifier
52297, 2022-041AN
Orbit
LEO
Country
Flag of USUS
Related business
Manufacturer
SpaceX/Seattle
Mission
Operational Commercial Communications
Bus & Motor
STARLINK, Unknown motor
Mass
297 kg wet, ~275 kg dry
Launch date (UTC)
2022-04-21 (4 years ago)
Launch vehicle
FALCON 9
Launch site
Air Force Eastern Test Range (AFETR)
Object type
Payload
Rocket body
Debris
Shape & HBR
Box + 1 Pan, 10.1 m
Radar Cross Section
11.087 m², Large (>1 m²)

Expand to show TLE details & history
Last TLE update: 17 hours ago

TLE from 17 hours ago
0 STARLINK-3758
1 52297U 22041AN  26175.20112017  .00000700  00000-0  62091-4 0  9998
2 52297  53.1610 340.8319 0001394  89.8503 270.2649 15.08834503230586
Epoch: 2026-06-24T04:49Z
TLE epoch observation values (Epoch: 2026-06-24T04:49:36.782Z)
Latitude
0.00003°
Longitude
-3.93307°
Altitude
540.647 km
Speed
7.593 km/s
True Right ascension
22h 43m 19s
True Declination
0° 00' 00"
Sunlit
Object was in daylight at epoch
Visualization orbit readout
Latitude
Unknown
Longitude
Unknown
Altitude
Unknown
Speed
Unknown
Apparent Right ascension
Unknown
Apparent Declination
Unknown
Sunlit
N/A
Visualization observer readout
Local Sidereal Time
08:50:43
Azimuth
Unknown
Elevation
Unknown
Doppler factor
Unknown
Orbital elements
Apogee altitude
540.979 km
Perigee altitude
539.05 km
Semi-major axis
6,918.151 km
Eccentricity
0.00014
Inclination
53.161°
RAAN
340.8319°
Arg. of periapsis
89.8503°
True anomaly
270.24893°
Mean anomaly
270.2649°
Eccentric anomaly
270.25691°
Mean motion
3.77188 °/min
Orbital period
95.44 mins
BSTAR
0.000062091
Loading maneuver chart data...
Computing Atmospheric mass density...
Loading historical data...
Loading historical data...
Loading historical data...
Loading historical data...
Loading historical data...
Loading historical data...
Loading historical data...

Documentation

Showing up to 5 results
|